Year,Month,Day,Hour,Minute,Value (Times are PST for temperature in C)
2015,05,21,06,09,10.20
2015,05,21,06,10,10.20
2015,05,21,06,11,10.20
2015,05,21,06,12,10.20
2015,05,21,06,13,10.20
2015,05,21,06,14,10.20
2015,05,21,06,15,10.20
2015,05,21,06,16,10.20
2015,05,21,06,17,10.20
2015,05,21,06,18,10.20
2015,05,21,06,19,10.20
2015,05,21,06,20,10.20
2015,05,21,06,21,10.20
2015,05,21,06,22,10.20
2015,05,21,06,23,10.20
2015,05,21,06,24,10.20
2015,05,21,06,25,10.20
2015,05,21,06,26,10.20
2015,05,21,06,27,10.20
2015,05,21,06,28,10.20
2015,05,21,11,16,19.70
2015,05,21,11,17,19.80
2015,05,21,11,18,19.90
2015,05,21,11,19,20.00
2015,05,21,11,20,20.10
2015,05,21,11,21,20.20
2015,05,21,11,22,20.40
2015,05,21,11,23,20.50
2015,05,21,11,24,20.50
2015,05,21,11,25,20.60
2015,05,21,11,26,20.60
2015,05,21,11,27,20.70
2015,05,21,11,28,20.70
2015,05,21,11,29,20.80
2015,05,21,11,30,20.80
2015,05,21,11,31,20.80
2015,05,21,11,32,20.90
2015,05,21,11,33,21.00
2015,05,21,11,34,21.10
2015,05,21,11,35,21.10
2015,05,21,11,36,21.20
2015,05,21,11,37,21.20
2015,05,21,11,38,21.30
2015,05,21,11,39,21.30
2015,05,21,11,40,21.40
2015,05,21,11,41,21.40
2015,05,21,11,42,21.40
2015,05,21,11,43,21.40
2015,05,21,11,44,21.40
2015,05,21,11,45,21.50
2015,05,21,11,46,21.60
2015,05,21,11,47,21.60
2015,05,21,11,48,21.60
2015,05,21,11,49,21.70
2015,05,21,11,50,21.70
2015,05,21,11,51,21.70
2015,05,21,11,52,21.70
2015,05,21,11,53,21.60
2015,05,21,11,54,21.50
2015,05,21,11,55,21.30
2015,05,21,11,56,21.30
2015,05,21,11,57,21.20
2015,05,21,11,58,21.10
2015,05,21,11,59,21.10
2015,05,21,12,00,21.00
2015,05,21,12,01,20.90
2015,05,21,12,02,20.90
2015,05,21,12,03,20.80
2015,05,21,12,04,20.80
2015,05,21,12,05,20.70
2015,05,21,12,06,20.70
2015,05,21,12,07,20.80
2015,05,21,12,08,20.80
2015,05,21,12,09,20.70
2015,05,21,12,10,20.60
2015,05,21,12,11,20.60
2015,05,21,12,12,20.60
2015,05,21,12,13,20.50
2015,05,21,12,14,20.50
2015,05,21,12,15,20.60
2015,05,21,12,16,20.50
2015,05,21,12,17,20.40
2015,05,21,12,18,20.10
2015,05,21,12,19,19.80
2015,05,21,12,20,19.60
2015,05,21,12,21,19.50
2015,05,21,12,22,19.60
2015,05,21,12,23,19.70
2015,05,21,12,24,19.80
2015,05,21,12,25,19.90
2015,05,21,12,26,20.00
2015,05,21,12,27,20.00
2015,05,21,12,28,19.70
2015,05,21,12,29,19.40
2015,05,21,12,30,19.20
2015,05,21,12,31,19.20
2015,05,21,12,32,19.30
2015,05,21,12,33,19.40
2015,05,21,12,34,19.40
2015,05,21,12,35,19.40
2015,05,21,12,36,19.50
2015,05,21,12,37,19.50
2015,05,21,12,38,19.50
2015,05,21,12,39,19.50
2015,05,21,12,40,19.50
2015,05,21,12,41,19.50
2015,05,21,12,42,19.50
2015,05,21,12,43,19.30
2015,05,21,12,44,19.10
2015,05,21,12,45,19.10
2015,05,21,12,46,18.90
2015,05,21,12,47,18.90
2015,05,21,12,48,18.90
2015,05,21,12,49,18.90
2015,05,21,12,50,18.90
2015,05,21,12,51,18.90
2015,05,21,12,52,19.10
2015,05,21,12,53,19.10
2015,05,21,12,54,19.30
2015,05,21,12,55,19.40
2015,05,21,12,56,19.50
2015,05,21,12,57,19.50
2015,05,21,12,58,19.60
2015,05,21,12,59,19.70
2015,05,21,13,00,19.70
2015,05,21,13,01,19.70
2015,05,21,13,02,19.70
2015,05,21,13,03,19.70
2015,05,21,13,04,19.80
2015,05,21,13,05,19.80
2015,05,21,13,06,19.90
2015,05,21,13,07,20.10
2015,05,21,13,08,20.20
2015,05,21,13,09,20.30
2015,05,21,13,10,20.30
2015,05,21,13,11,20.50
2015,05,21,13,12,20.50
2015,05,21,13,13,20.50
2015,05,21,13,14,20.50
2015,05,21,13,15,20.50
2015,05,21,13,16,20.50
2015,05,21,13,17,20.50
2015,05,21,13,18,20.50
2015,05,21,13,19,20.50
2015,05,21,13,20,20.40
2015,05,21,13,21,20.40
2015,05,21,13,22,20.40
2015,05,21,13,23,20.40
2015,05,21,13,24,20.40
2015,05,21,13,25,20.40
2015,05,21,13,26,20.40
2015,05,21,13,27,20.30
2015,05,21,13,28,20.30
2015,05,21,13,29,20.30
2015,05,21,13,30,20.20
2015,05,21,13,31,20.20
2015,05,21,13,32,20.10
2015,05,21,13,33,19.90
2015,05,21,13,34,19.90
2015,05,21,13,35,19.90
2015,05,21,13,36,19.90
2015,05,21,13,37,19.90
2015,05,21,13,38,19.90
2015,05,21,13,39,19.90
2015,05,21,13,40,20.00
2015,05,21,13,41,20.20
2015,05,21,13,42,20.40
2015,05,21,13,43,20.60
2015,05,21,13,44,20.70
2015,05,21,13,45,20.80
2015,05,21,13,46,20.90
2015,05,21,13,47,21.00
2015,05,21,13,48,21.10
2015,05,21,13,49,21.00
2015,05,21,13,50,21.10
2015,05,21,13,51,21.40
2015,05,21,13,52,21.50
2015,05,21,13,53,21.60
2015,05,21,13,54,21.60
2015,05,21,13,55,21.60
2015,05,21,13,56,21.60
2015,05,21,13,57,21.60
2015,05,21,13,58,21.60
2015,05,21,13,59,21.40
2015,05,21,14,00,21.30
2015,05,21,14,01,21.40
2015,05,21,14,02,21.50
2015,05,21,14,03,21.60
2015,05,21,14,04,21.70
2015,05,21,14,05,21.90
2015,05,21,14,06,22.00
2015,05,21,14,07,22.00
2015,05,21,14,08,22.00
2015,05,21,14,09,22.00
2015,05,21,14,10,22.00
2015,05,21,14,11,21.90
2015,05,21,14,12,21.80
2015,05,21,14,13,21.80
2015,05,21,14,14,21.70
2015,05,21,14,15,21.70
2015,05,21,14,16,21.80
2015,05,21,14,17,21.80
2015,05,21,14,18,21.80
2015,05,21,14,19,21.80
2015,05,21,14,20,21.80
2015,05,21,14,21,21.90
2015,05,21,14,22,21.90
2015,05,21,14,23,21.90
2015,05,21,14,24,21.90
2015,05,21,14,25,21.80
2015,05,21,14,26,21.80
2015,05,21,14,27,21.80
2015,05,21,14,28,21.70
2015,05,21,14,29,21.60
2015,05,21,14,30,21.60
2015,05,21,14,31,21.60
2015,05,21,14,32,21.60
2015,05,21,14,33,21.60
2015,05,21,14,34,21.60
2015,05,21,14,35,21.60
2015,05,21,14,36,21.70
2015,05,21,14,37,21.80
2015,05,21,14,38,21.90
2015,05,21,14,39,22.00
2015,05,21,14,40,22.00
2015,05,21,14,41,22.00
2015,05,21,14,42,22.00
2015,05,21,14,43,22.00
2015,05,21,14,44,22.00
2015,05,21,14,45,22.00
2015,05,21,14,46,22.00
2015,05,21,14,47,22.00
2015,05,21,14,48,22.00
2015,05,21,14,49,22.00
2015,05,21,14,50,22.10
2015,05,21,14,51,22.00
2015,05,21,14,52,22.00
2015,05,21,14,53,21.90
2015,05,21,14,54,21.90
2015,05,21,14,55,21.80
2015,05,21,14,56,21.80
2015,05,21,14,57,21.80
2015,05,21,14,58,21.70
2015,05,21,14,59,21.70
2015,05,21,15,00,21.70
2015,05,21,15,01,21.80
2015,05,21,15,02,21.80
2015,05,21,15,03,21.80
2015,05,21,15,04,21.70
2015,05,21,15,05,21.60
2015,05,21,15,06,21.60
2015,05,21,15,07,21.60
2015,05,21,15,08,21.60
2015,05,21,15,09,21.40
2015,05,21,15,10,21.40
2015,05,21,15,11,21.30
2015,05,21,15,12,21.30
2015,05,21,15,13,21.30
2015,05,21,15,14,21.30
2015,05,21,15,15,21.30
2015,05,21,15,16,21.30
2015,05,21,15,17,21.30
2015,05,21,15,18,21.30
2015,05,21,15,19,21.30
2015,05,21,15,20,21.30
2015,05,21,15,21,21.20
2015,05,21,15,22,21.20
2015,05,21,15,23,21.20
2015,05,21,15,24,21.10
2015,05,21,15,25,21.20
2015,05,21,15,26,21.20
2015,05,21,15,27,21.20
2015,05,21,15,28,21.20
2015,05,21,15,29,21.20
2015,05,21,15,30,21.10
2015,05,21,15,31,21.10
2015,05,21,15,32,21.00
2015,05,21,15,33,21.00
2015,05,21,15,34,20.90
2015,05,21,15,35,20.90
2015,05,21,15,36,20.80
2015,05,21,15,37,20.80
2015,05,21,15,38,20.70
2015,05,21,15,39,20.60
2015,05,21,15,40,20.60
2015,05,21,15,41,20.50
2015,05,21,15,42,20.40
2015,05,21,15,43,20.40
2015,05,21,15,44,20.30
2015,05,21,15,45,20.30
2015,05,21,15,46,20.30
2015,05,21,15,47,20.30
2015,05,21,15,48,20.30
2015,05,21,15,49,20.40
2015,05,21,15,50,20.40
2015,05,21,15,51,20.50
2015,05,21,15,52,20.50
2015,05,21,15,53,20.50
2015,05,21,15,54,20.50
2015,05,21,15,55,20.70
2015,05,21,15,56,20.80
2015,05,21,15,57,20.90
2015,05,21,15,58,20.90
2015,05,21,15,59,20.90
2015,05,21,16,00,20.90
2015,05,21,16,01,20.90
2015,05,21,16,02,20.90
2015,05,21,16,03,20.80
2015,05,21,16,04,20.70
2015,05,21,16,05,20.70
2015,05,21,16,06,20.60
2015,05,21,16,07,20.60
2015,05,21,16,08,20.60
2015,05,21,16,09,20.50
2015,05,21,16,10,20.50
2015,05,21,16,11,20.50
2015,05,21,16,12,20.50
2015,05,21,16,13,20.40
2015,05,21,16,14,20.40
2015,05,21,16,15,20.40
2015,05,21,16,16,20.50
2015,05,21,16,17,20.50
2015,05,21,16,18,20.50
2015,05,21,16,19,20.50
2015,05,21,16,20,20.50
2015,05,21,16,21,20.50
2015,05,21,16,22,20.50
2015,05,21,16,23,20.50
2015,05,21,16,24,20.60
2015,05,21,16,25,20.70
2015,05,21,16,26,20.70
2015,05,21,16,27,20.80
2015,05,21,16,28,20.80
2015,05,21,16,29,20.80
2015,05,21,16,30,20.90
2015,05,21,16,31,21.00
2015,05,21,16,32,21.00
2015,05,21,16,33,21.10
2015,05,21,16,34,21.10
2015,05,21,16,35,21.10
2015,05,21,16,36,21.20
2015,05,21,16,37,21.20
2015,05,21,16,38,21.20
2015,05,21,16,39,21.20
2015,05,21,16,40,21.20
2015,05,21,16,41,21.20
2015,05,21,16,42,21.20
2015,05,21,16,43,21.20
2015,05,21,16,44,21.30
2015,05,21,16,45,21.30
2015,05,21,16,46,21.30
2015,05,21,16,47,21.30
2015,05,21,16,48,21.30
2015,05,21,16,49,21.30
2015,05,21,16,50,21.30
2015,05,21,16,51,21.30
2015,05,21,16,52,21.30
2015,05,21,16,53,21.20
2015,05,21,16,54,21.20
2015,05,21,16,55,21.20
2015,05,21,16,56,21.20
2015,05,21,16,57,21.20
2015,05,21,16,58,21.20
2015,05,21,16,59,21.20
2015,05,21,17,00,21.20
2015,05,21,17,01,21.40
2015,05,21,17,02,21.50
2015,05,21,17,03,21.60
2015,05,21,17,04,21.60
2015,05,21,17,05,21.60
2015,05,21,17,06,21.60
2015,05,21,17,07,21.60
2015,05,21,17,08,21.60
2015,05,21,17,09,21.60
2015,05,21,17,10,21.60
2015,05,21,17,11,21.60
2015,05,21,17,12,21.40
2015,05,21,17,13,21.50
2015,05,21,17,14,21.50
2015,05,21,17,15,21.40
2015,05,21,17,16,21.30
2015,05,21,17,17,21.30
2015,05,21,17,18,21.30
2015,05,21,17,19,21.30
2015,05,21,17,20,21.30
2015,05,21,17,21,21.20
2015,05,21,17,22,21.20
2015,05,21,17,23,21.20
2015,05,21,17,24,21.10
2015,05,21,17,25,21.10
2015,05,21,17,26,21.10
2015,05,21,17,27,21.10
2015,05,21,17,28,21.10
2015,05,21,17,29,21.00
2015,05,21,17,30,21.00
2015,05,21,17,31,21.00
2015,05,21,17,32,21.10
2015,05,21,17,33,21.00
2015,05,21,17,34,21.00
2015,05,21,17,35,21.00
2015,05,21,17,36,20.90
2015,05,21,17,37,20.90
2015,05,21,17,38,20.90
2015,05,21,17,39,20.80
2015,05,21,17,40,20.80
2015,05,21,17,41,20.70
2015,05,21,17,42,20.70
2015,05,21,17,43,20.60
2015,05,21,17,44,20.60
2015,05,21,17,45,20.50
2015,05,21,17,46,20.50
2015,05,21,17,47,20.40
2015,05,21,17,48,20.40
2015,05,21,17,49,20.30
2015,05,21,17,50,20.20
2015,05,21,17,51,20.20
2015,05,21,17,52,20.20
2015,05,21,17,53,20.10
2015,05,21,17,54,20.10
2015,05,21,17,55,20.00
2015,05,21,17,56,19.90
2015,05,21,17,57,19.90
2015,05,21,17,58,19.90
2015,05,21,17,59,19.90
2015,05,21,18,00,19.80
2015,05,21,18,01,19.80
2015,05,21,18,02,19.80
2015,05,21,18,03,19.80
2015,05,21,18,04,19.90
2015,05,21,18,05,19.90
2015,05,21,18,06,19.90
2015,05,21,18,07,19.90
2015,05,21,18,08,19.90
2015,05,21,18,09,19.90
2015,05,21,18,10,19.90
2015,05,21,18,11,19.80
2015,05,21,18,12,19.80
2015,05,21,18,13,19.80
2015,05,21,18,14,19.80
2015,05,21,18,15,19.80
2015,05,21,18,16,19.80
2015,05,21,18,17,19.90
2015,05,21,18,18,19.90
2015,05,21,18,19,19.80
2015,05,21,18,20,19.80
2015,05,21,18,21,19.80
2015,05,21,18,22,19.80
2015,05,21,18,23,19.70
2015,05,21,18,24,19.70
2015,05,21,18,25,19.70
2015,05,21,18,26,19.70
2015,05,21,18,27,19.70
2015,05,21,18,28,19.70
2015,05,21,18,29,19.70
2015,05,21,18,30,19.70
2015,05,21,18,31,19.70
2015,05,21,18,32,19.70
2015,05,21,18,33,19.70
2015,05,21,18,34,19.60
2015,05,21,18,35,19.60
2015,05,21,18,36,19.60
2015,05,21,18,37,19.60
2015,05,21,18,38,19.50
2015,05,21,18,39,19.50
2015,05,21,18,40,19.50
2015,05,21,18,41,19.40
2015,05,21,18,42,19.40
2015,05,21,18,43,19.30
2015,05,21,18,44,19.30
2015,05,21,18,45,19.20
2015,05,21,18,46,19.10
2015,05,21,18,47,19.10
2015,05,21,18,48,19.00
2015,05,21,18,49,18.90
2015,05,21,18,50,18.90
2015,05,21,18,51,18.80
2015,05,21,18,52,18.70
2015,05,21,18,53,18.60
2015,05,21,18,54,18.50
2015,05,21,18,55,18.50
2015,05,21,18,56,18.40
2015,05,21,18,57,18.40
2015,05,21,18,58,18.30
2015,05,21,18,59,18.30
2015,05,21,19,00,18.30
2015,05,21,19,01,18.30
2015,05,21,19,02,18.20
2015,05,21,19,03,18.20
2015,05,21,19,04,18.20
2015,05,21,19,05,18.20
2015,05,21,19,06,18.20
2015,05,21,19,07,18.20
2015,05,21,19,08,18.20
2015,05,21,19,09,18.10
2015,05,21,19,10,18.10
2015,05,21,19,11,18.10
2015,05,21,19,12,18.10
2015,05,21,19,13,17.90
2015,05,21,19,14,17.90
2015,05,21,19,15,17.90
2015,05,21,19,16,17.90
2015,05,21,19,17,17.80
2015,05,21,19,18,17.70
2015,05,21,19,19,17.60
2015,05,21,19,20,17.60
2015,05,21,19,21,17.50
2015,05,21,19,22,17.50
2015,05,21,19,23,17.40
2015,05,21,19,24,17.40
2015,05,21,19,25,17.30
2015,05,21,19,26,17.30
2015,05,21,19,27,17.20
2015,05,21,19,28,17.10
2015,05,21,19,29,17.00
2015,05,21,19,30,16.90
2015,05,21,19,31,16.90
2015,05,21,19,32,16.80
2015,05,21,19,33,16.70
2015,05,21,19,34,16.60
2015,05,21,19,35,16.50
2015,05,21,19,36,16.40
2015,05,21,19,37,16.30
2015,05,21,19,38,16.30
2015,05,21,19,39,16.20
2015,05,21,19,40,16.10
2015,05,21,19,41,16.10
2015,05,21,19,42,16.10
2015,05,21,19,43,16.00
2015,05,21,19,44,15.90
2015,05,21,19,45,15.80
2015,05,21,19,46,15.80
2015,05,21,19,47,15.70
2015,05,21,19,48,15.60
2015,05,21,19,49,15.60
2015,05,21,19,50,15.50
2015,05,21,19,51,15.50
2015,05,21,19,52,15.50
2015,05,21,19,53,15.40
2015,05,21,19,54,15.40
2015,05,21,19,55,15.40
2015,05,21,19,56,15.40
2015,05,21,19,57,15.40
2015,05,21,19,58,15.40
2015,05,21,19,59,15.40
2015,05,21,20,00,15.40
2015,05,21,20,01,15.30
2015,05,21,20,02,15.30
2015,05,21,20,03,15.30
2015,05,21,20,04,15.30
2015,05,21,20,05,15.30
2015,05,21,20,06,15.30
2015,05,21,20,07,15.30
2015,05,21,20,08,15.30
2015,05,21,20,09,15.30
2015,05,21,20,10,15.30
2015,05,21,20,11,15.30
2015,05,21,20,12,15.30
2015,05,21,20,13,15.30
2015,05,21,20,14,15.30
2015,05,21,20,15,15.20
2015,05,21,20,16,15.20
2015,05,21,20,17,15.20
2015,05,21,20,18,15.20
2015,05,21,20,19,15.10
2015,05,21,20,20,15.10
2015,05,21,20,21,15.00
2015,05,21,20,22,15.00
2015,05,21,20,23,15.00
2015,05,21,20,24,14.90
2015,05,21,20,25,14.90
2015,05,21,20,26,14.90
2015,05,21,20,27,14.80
2015,05,21,20,28,14.80
2015,05,21,20,29,14.80
2015,05,21,20,30,14.80
2015,05,21,20,31,14.80
2015,05,21,20,32,14.70
2015,05,21,20,33,14.70
2015,05,21,20,34,14.60
2015,05,21,20,35,14.60
2015,05,21,20,36,14.50
2015,05,21,20,37,14.50
2015,05,21,20,38,14.40
2015,05,21,20,39,14.40
2015,05,21,20,40,14.30
2015,05,21,20,41,14.20
2015,05,21,20,42,14.10
2015,05,21,20,43,14.00
2015,05,21,20,44,14.00
2015,05,21,20,45,13.90
2015,05,21,20,46,13.80
2015,05,21,20,47,13.70
2015,05,21,20,48,13.60
2015,05,21,20,49,13.60
2015,05,21,20,50,13.60
2015,05,21,20,51,13.60
2015,05,21,20,52,13.60
2015,05,21,20,53,13.60
2015,05,21,20,54,13.60
2015,05,21,20,55,13.60
2015,05,21,20,56,13.60
2015,05,21,20,57,13.60
2015,05,21,20,58,13.60
